TimeCDT,TemperatureF,Dew PointF,Humidity,Sea Level PressureIn,VisibilityMPH,Wind Direction,Wind SpeedMPH,Gust SpeedMPH,PrecipitationIn,Events,Conditions,WindDirDegrees,DateUTC
12:00 AM,50.0,41.0,71,29.93,6.0,South,9.2,-,N/A,,Haze,180,2012-10-03 05:00:00
12:20 AM,50.0,41.0,71,29.93,1.8,South,8.1,-,N/A,,Haze,190,2012-10-03 05:20:00
12:40 AM,48.2,41.0,76,29.93,4.0,South,8.1,-,N/A,,Haze,190,2012-10-03 05:40:00
1:00 AM,48.2,41.0,76,29.93,10.0,SSW,5.8,-,N/A,,Clear,200,2012-10-03 06:00:00
1:20 AM,48.2,39.2,71,29.93,9.0,South,6.9,-,N/A,,Clear,190,2012-10-03 06:20:00
1:40 AM,50.0,39.2,66,29.93,6.0,South,6.9,-,N/A,,Haze,180,2012-10-03 06:40:00
2:00 AM,48.2,39.2,71,29.93,8.0,SSW,6.9,-,N/A,,Partly Cloudy,200,2012-10-03 07:00:00
2:20 AM,48.2,39.2,71,29.94,10.0,SSW,5.8,-,N/A,,Partly Cloudy,210,2012-10-03 07:20:00
2:40 AM,48.2,39.2,71,29.94,10.0,SSW,4.6,-,N/A,,Partly Cloudy,200,2012-10-03 07:40:00
3:00 AM,48.2,39.2,71,29.93,5.0,South,4.6,-,N/A,,Haze,190,2012-10-03 08:00:00
3:20 AM,48.2,39.2,71,29.93,7.0,SSW,4.6,-,N/A,,Partly Cloudy,200,2012-10-03 08:20:00
3:40 AM,48.2,41.0,76,29.93,4.0,SSW,3.5,-,N/A,,Haze,210,2012-10-03 08:40:00
4:00 AM,46.4,39.2,76,29.93,10.0,SW,5.8,-,N/A,,Partly Cloudy,220,2012-10-03 09:00:00
4:20 AM,46.4,41.0,81,29.93,10.0,South,5.8,-,N/A,,Partly Cloudy,190,2012-10-03 09:20:00
4:40 AM,44.6,41.0,87,29.93,10.0,South,6.9,-,N/A,,Partly Cloudy,190,2012-10-03 09:40:00
5:00 AM,46.4,41.0,81,29.93,5.0,South,5.8,-,N/A,,Haze,180,2012-10-03 10:00:00
5:20 AM,46.4,41.0,81,29.93,5.0,SSW,5.8,-,N/A,,Haze,200,2012-10-03 10:20:00
5:40 AM,46.4,41.0,81,29.93,5.0,South,6.9,-,N/A,,Haze,180,2012-10-03 10:40:00
6:00 AM,46.4,41.0,81,29.93,6.0,SSW,5.8,-,N/A,,Haze,200,2012-10-03 11:00:00
6:20 AM,46.4,41.0,81,29.93,1.8,South,5.8,-,N/A,,Haze,170,2012-10-03 11:20:00
6:40 AM,46.4,41.0,81,29.93,4.0,South,5.8,-,N/A,,Haze,180,2012-10-03 11:40:00
7:00 AM,46.4,41.0,81,29.93,3.0,South,6.9,-,N/A,,Haze,170,2012-10-03 12:00:00
7:20 AM,46.4,41.0,81,29.93,7.0,South,4.6,-,N/A,,Partly Cloudy,170,2012-10-03 12:20:00
8:00 AM,48.2,42.8,82,29.94,10.0,SE,3.5,-,N/A,,Clear,140,2012-10-03 13:00:00
8:20 AM,51.8,44.6,76,29.94,10.0,SSE,4.6,-,N/A,,Clear,160,2012-10-03 13:20:00
8:40 AM,55.4,44.6,67,29.94,10.0,SSE,5.8,-,N/A,,Clear,160,2012-10-03 13:40:00
9:00 AM,57.2,44.6,63,29.94,10.0,South,8.1,-,N/A,,Clear,170,2012-10-03 14:00:00
9:20 AM,59.0,44.6,59,29.94,10.0,SSE,8.1,-,N/A,,Clear,160,2012-10-03 14:20:00
10:00 AM,62.6,46.4,55,29.95,10.0,South,9.2,-,N/A,,Clear,170,2012-10-03 15:00:00
10:20 AM,66.2,46.4,49,29.94,10.0,SSE,9.2,-,N/A,,Clear,160,2012-10-03 15:20:00
10:40 AM,71.6,44.6,38,29.94,10.0,South,17.3,20.7,N/A,,Clear,190,2012-10-03 15:40:00
11:00 AM,73.4,44.6,36,29.94,10.0,South,15.0,25.3,N/A,,Clear,190,2012-10-03 16:00:00
11:20 AM,75.2,44.6,34,29.93,10.0,SSW,17.3,25.3,N/A,,Clear,200,2012-10-03 16:20:00
11:40 AM,77.0,42.8,29,29.92,10.0,South,20.7,29.9,N/A,,Clear,190,2012-10-03 16:40:00
12:00 PM,77.0,44.6,32,29.91,10.0,South,17.3,26.5,N/A,,Clear,190,2012-10-03 17:00:00
12:20 PM,77.0,44.6,32,29.91,10.0,South,19.6,25.3,N/A,,Clear,190,2012-10-03 17:20:00
12:40 PM,78.8,44.6,30,29.90,10.0,South,19.6,24.2,N/A,,Clear,190,2012-10-03 17:40:00
1:00 PM,80.6,44.6,28,29.89,10.0,SSW,16.1,26.5,N/A,,Clear,200,2012-10-03 18:00:00
1:20 PM,80.6,46.4,30,29.89,10.0,SSW,21.9,25.3,N/A,,Clear,200,2012-10-03 18:20:00
1:40 PM,80.6,46.4,30,29.87,10.0,South,19.6,26.5,N/A,,Clear,190,2012-10-03 18:40:00
2:00 PM,80.6,46.4,30,29.86,10.0,South,21.9,27.6,N/A,,Clear,180,2012-10-03 19:00:00
2:20 PM,82.4,48.2,30,29.86,10.0,South,17.3,24.2,N/A,,Clear,180,2012-10-03 19:20:00
2:40 PM,82.4,48.2,30,29.85,10.0,South,19.6,28.8,N/A,,Clear,190,2012-10-03 19:40:00
3:00 PM,82.4,48.2,30,29.85,10.0,South,19.6,26.5,N/A,,Clear,190,2012-10-03 20:00:00
3:20 PM,82.4,48.2,30,29.85,10.0,SSW,18.4,25.3,N/A,,Clear,200,2012-10-03 20:20:00
3:40 PM,82.4,48.2,30,29.84,10.0,South,20.7,27.6,N/A,,Clear,190,2012-10-03 20:40:00
4:00 PM,82.4,48.2,30,29.84,10.0,South,19.6,24.2,N/A,,Clear,180,2012-10-03 21:00:00
4:20 PM,82.4,48.2,30,29.84,10.0,South,21.9,28.8,N/A,,Clear,190,2012-10-03 21:20:00
4:40 PM,82.4,48.2,30,29.84,10.0,South,18.4,25.3,N/A,,Clear,190,2012-10-03 21:40:00
5:00 PM,82.4,48.2,30,29.84,10.0,South,21.9,27.6,N/A,,Clear,190,2012-10-03 22:00:00
5:20 PM,82.4,48.2,30,29.85,10.0,South,18.4,24.2,N/A,,Clear,180,2012-10-03 22:20:00
5:40 PM,80.6,48.2,32,29.85,10.0,South,20.7,24.2,N/A,,Clear,190,2012-10-03 22:40:00
6:00 PM,80.6,48.2,32,29.85,10.0,South,17.3,24.2,N/A,,Clear,190,2012-10-03 23:00:00
6:20 PM,78.8,48.2,34,29.85,10.0,South,15.0,20.7,N/A,,Clear,190,2012-10-03 23:20:00
6:40 PM,77.0,48.2,36,29.86,10.0,South,12.7,20.7,N/A,,Clear,180,2012-10-03 23:40:00
7:00 PM,75.2,50.0,41,29.86,10.0,South,11.5,-,N/A,,Clear,180,2012-10-04 00:00:00
7:20 PM,73.4,50.0,44,29.86,10.0,South,13.8,-,N/A,,Clear,180,2012-10-04 00:20:00
7:40 PM,71.6,50.0,46,29.88,10.0,South,10.4,-,N/A,,Clear,180,2012-10-04 00:40:00
8:00 PM,69.8,50.0,49,29.89,10.0,South,11.5,-,N/A,,Clear,180,2012-10-04 01:00:00
8:20 PM,68.0,50.0,52,29.89,10.0,South,11.5,-,N/A,,Clear,180,2012-10-04 01:20:00
8:40 PM,68.0,50.0,52,29.90,10.0,South,13.8,-,N/A,,Clear,170,2012-10-04 01:40:00
9:00 PM,68.0,50.0,52,29.91,10.0,South,15.0,-,N/A,,Clear,180,2012-10-04 02:00:00
9:20 PM,68.0,50.0,52,29.92,10.0,South,13.8,-,N/A,,Clear,180,2012-10-04 02:20:00
9:40 PM,68.0,50.0,52,29.92,10.0,South,15.0,-,N/A,,Clear,180,2012-10-04 02:40:00
10:00 PM,68.0,50.0,52,29.92,10.0,South,13.8,-,N/A,,Clear,170,2012-10-04 03:00:00
10:20 PM,66.2,51.8,60,29.92,10.0,South,13.8,-,N/A,,Clear,170,2012-10-04 03:20:00
10:40 PM,66.2,51.8,60,29.91,10.0,South,15.0,-,N/A,,Clear,170,2012-10-04 03:40:00
11:00 PM,66.2,51.8,60,29.92,10.0,South,16.1,20.7,N/A,,Clear,180,2012-10-04 04:00:00
11:20 PM,66.2,51.8,60,29.93,10.0,South,13.8,-,N/A,,Clear,180,2012-10-04 04:20:00
11:40 PM,66.2,51.8,60,29.93,10.0,South,13.8,-,N/A,,Clear,180,2012-10-04 04:40:00